Regional Weather Roundup
Issued by NWS

Home | Current Version | Previous Version | Graphics & Text | Print | Product List | Glossary On
Versions: 1 2 3 4 5 6 7 8 9 10 11 12 13 14 15 16 17 18 19 20 21 22 23 24 25 26 27 28 29 30 31 32 33 34 35 36 37 38 39 40 41 42 43 44 45 46 47 48 49 50
000
ASUS43 KMPX 010910
RWRMN
WEATHER ROUNDUP FOR MINNESOTA
NATIONAL WEATHER SERVICE TWIN CITIES/CHANHASSEN MN
300 AM CST WED MAR 01 2017


NOTE: "FAIR" INDICATES FEW OR NO CLOUDS BELOW 12,000 FEET WITH NO
SIGNIFICANT WEATHER AND/OR OBSTRUCTIONS TO VISIBILITY. N/A MEANS
CURRENT SKY AND/OR WEATHER CONDITIONS ARE NOT AVAILABLE.

MNZ060>063-068>070-011000-
   Twin Cities Metro

CITY           SKY/WX    TMP DP  RH WIND       PRES   REMARKS
TWIN CITIES    CLOUDY    29  24  82 N14       29.71F WCI  18
ST PAUL        CLOUDY    29  26  89 N14       29.72F WCI  18
CRYSTAL        CLOUDY    29  21  72 N12G20    29.72F WCI  19
BLAINE         CLOUDY    30  25  80 N16       29.73S WCI  19
LAKEVILLE      MIX PCPN  28  28 100 N12G17    29.68F WCI  18
EDEN PRAIRIE   CLOUDY    30  24  78 N15       29.70F WCI  19
SOUTH ST PAUL  CLOUDY    31  27  86 N9        29.70S FOG     WCI  22
LAKE ELMO      CLOUDY    30  27  86 N9        29.70F WCI  22
$$
MNZ001>005-007-008-013>017-022>024-027-028-011000-
   Northwest Minnesota

CITY           SKY/WX    TMP DP  RH WIND       PRES   REMARKS
BEMIDJI        CLOUDY    18  10  71 NE3       29.85S
HALLOCK        CLEAR      5   1  85 CALM      29.93S
ROSEAU         CLOUDY     5  -2  72 NE5       29.92S WCI  -4
WARROAD        CLOUDY    10   1  67 NE6       29.92S WCI   1
THIEF RVR FALL MOCLDY    15   6  67 NE5       29.90S WCI   8
CROOKSTON      PTCLDY    12   9  85 NW7       29.93R WCI   2
FOSSTON        PTCLDY    16  10  79 NE3       29.87S
DETROIT LAKES  CLOUDY    27  19  74 N3        29.85S
MOORHEAD       CLOUDY    18  14  86 N12       29.90S WCI   5
PARK RAPIDS    CLOUDY    23  13  65 N6        29.82S WCI  16
MAHNOMEN       PTSUNNY   20  16  82 N6        29.86S WCI  13
$$
MNZ006-009>011-018-025>026-011000-
   North Central Minnesota

CITY           SKY/WX    TMP DP  RH WIND       PRES   REMARKS
BAUDETTE       PTCLDY    11   1  64 NE3       29.89F
FLAG ISLAND    CLOUDY     9   0  66 N5        29.92F WCI   0
INTL FALLS     CLOUDY    12   1  61 NE6       29.90S WCI   3
WASKISH        CLOUDY    14   7  73 E7        29.88F WCI   4
BIG FORK       CLOUDY    16   7  67 N3        29.85F
LONGVILLE      CLOUDY    25  18  74 CALM      29.82S
GRAND RAPIDS   CLOUDY    21  14  74 N5        29.84F WCI  15
CRANE LAKE     PTCLDY    10   1  67 CALM      29.91S
ORR            CLOUDY    12   1  62 CALM      29.84S
COOK           PTCLDY    12   3  67 CALM      29.85F
WALKER         FAIR      20  14  76 N6        29.83S WCI  13
$$
MNZ012-019>021-037-011000-
   Northeast Minnesota

CITY           SKY/WX    TMP DP  RH WIND       PRES   REMARKS
DULUTH         CLOUDY    22  16  78 NE10      29.79S WCI  11
ELY            CLOUDY    12   3  67 NE5       29.84R WCI   4
HIBBING        PTCLDY    17   5  59 NE9       29.82F WCI   6
EVELETH        CLOUDY    17   4  54 NE5       29.84S WCI  10
DULUTH HARBOR  CLOUDY    27  21  80 NE21      29.84S WCI  13
TWO HARBORS    CLOUDY    25  16  68 NE7       29.81S WCI  17
SILVER BAY     CLOUDY    19  10  68 N5        29.82R WCI  13
GRAND MARAIS     N/A     18   5  57 VRB6      29.87F WCI  10
G MARAIS ARPRT CLOUDY     9  -2  61 N13G18    29.78F WCI  -7
$$
MNZ029>031-032-039>041-046>048-054>057-064-011000-
   West Central Minnesota

CITY           SKY/WX    TMP DP  RH WIND       PRES   REMARKS
FERGUS FALLS   CLOUDY    25  19  80 N6        29.89S WCI  18
WHEATON        CLOUDY    21  19  93 NW10      29.88F WCI  10
MORRIS         CLOUDY    28  25  86 NW8       29.82S WCI  20
ALEXANDRIA     CLOUDY    27  21  78 N9        29.80F WCI  18
ELBOW LAKE     MOCLDY    25  20  83 N5        29.84S WCI  19
WADENA         CLOUDY    23  18  80 NE6       29.81F WCI  16
GLENWOOD       CLOUDY    28  25  86 N7        29.80F WCI  21
APPLETON       CLOUDY    28  27  93 NW13      29.83S WCI  18
BENSON         CLOUDY    32  25  74 N9        29.82F WCI  24
ORTONVILLE     PTCLDY    21  19  93 NW13      29.84S WCI   9
MADISON        CLOUDY    27  25  93 NW17      29.84S WCI  14
WILLMAR        CLOUDY    32  28  86 N13       29.80S WCI  22
$$
MNZ033>034-036-042>043-049>051-058-059-011000-
   Central Minnesota

CITY           SKY/WX    TMP DP  RH WIND       PRES   REMARKS
ST CLOUD       CLOUDY    29  26  89 N12       29.78S WCI  19
SAUK CENTRE    CLOUDY    29  24  80 N6        29.80S WCI  23
PAYNESVILLE    CLOUDY    30  30 100 N8        29.79R WCI  23
AITKIN         CLOUDY    28  19  69 NE6       29.79F WCI  22
PINE RIVER     CLOUDY    27  21  80 N6        29.85S WCI  20
BRAINERD       CLOUDY    28  21  75 N8        29.81S WCI  20
STAPLES        CLOUDY    25  19  80 N9        29.81S WCI  15
LONG PRAIRIE   CLOUDY    30  23  74 N7        29.80S WCI  23
LITTLE FALLS   CLOUDY    30  23  74 N3        29.81R
LITCHFIELD     MOCLDY    30  27  86 N7        29.78R WCI  23
BUFFALO        CLOUDY    28  24  82 N10G16    29.77S WCI  19
MAPLE LAKE     CLOUDY    29  26  88 N9        29.77F WCI  21
HUTCHINSON     MOCLDY    31  26  82 N15G22    29.75F WCI  20
$$
MNZ037-044-045-052-053-011000-
   East Central Minnesota

CITY           SKY/WX    TMP DP  RH WIND       PRES   REMARKS
PRINCETON      CLOUDY    28  23  80 N10       29.78R WCI  19
MORA           CLOUDY    27  23  86 N8        29.80S WCI  18
CAMBRIDGE      CLOUDY    28  21  74 N9        29.75R WCI  20
RUSH CITY      CLOUDY    26  22  84 N14       29.76S WCI  15
MOOSE LAKE     CLOUDY    27  21  80 NE9       29.78F WCI  17
HINCKLEY       CLOUDY    27  23  86 N13       29.77F WCI  16
CLOQUET        CLOUDY    23  18  80 NE10      29.79F WCI  12
MCGREGOR       CLOUDY    27  21  80 N7        29.80F WCI  19
$$
MNZ071>073-080-081-089-090-097-098-011000-
   Southwest Minnesota

CITY           SKY/WX    TMP DP  RH WIND       PRES   REMARKS
MONTEVIDEO     CLOUDY    30  28  93 N12       29.82F WCI  21
GRANITE FALLS  CLOUDY    33  29  86 NW9       29.81F WCI  25
CANBY          CLOUDY    26  24  91 W12G17    29.84S WCI  15
MARSHALL       CLOUDY    27  25  92 NW21      29.79F WCI  13
REDWOOD FALLS  CLOUDY    32  26  78 N10       29.76F WCI  24
OLIVIA         CLOUDY    32  28  86 N9        29.77S WCI  24
PIPESTONE      LGT SNOW  28  25  86 N9        29.77R WCI  20
WINDOM         LGT SNOW  30  30 100 NW14      29.73R WCI  20
WORTHINGTON    LGT SNOW  30  29  96 N17       29.74S FOG     WCI  18
JACKSON        CLOUDY    32  28  86 N13G22    29.71F WCI  22
TRACY          LGT SNOW  30  29  97 NW14      29.77S WCI  19
SLAYTON        LGT SNOW  28  27  96 NW16      29.75F WCI  15
$$
MNZ065>067-074>077-082>085-091>093-011000-
   South Central Minnesota

CITY           SKY/WX    TMP DP  RH WIND       PRES   REMARKS
MANKATO        MIX PCPN  30  27  88 N15       29.70F WCI  19
NEW ULM        FLURRIES  30  27  86 N10G17    29.72F WCI  21
ST JAMES       CLOUDY    30  28  93 NW17      29.72F WCI  18
FAIRMONT       CLOUDY    31  29  92 N17       29.70F WCI  19
GLENCOE        CLOUDY    31  28  88 N13G21    29.73F WCI  21
FARIBAULT      FLURRIES  30  28  93 N10       29.67F WCI  21
WASECA         CLOUDY    32  30  93 N18       29.67F FOG     WCI  20
ALBERT LEA     CLOUDY    30  30 100 N13       29.65R FOG     WCI  20
$$
MNZ078>079-086>088-094>096-011000-
   Southeast Minnesota

CITY           SKY/WX    TMP DP  RH WIND       PRES   REMARKS
ROCHESTER      LGT SNOW  31  31 100 N14       29.62R VSB 3/4 WCI  21
RED WING       MIX PCPN  32  27  80 N8        29.65F WCI  25
STANTON        CLOUDY    31  28  88 N14       29.65F FOG     WCI  21
WINONA         CLOUDY    34  32  93 N5        29.61S WCI  30
AUSTIN         CLOUDY    30  30 100 N8G20     29.63R WCI  23
PRESTON        LGT SNOW  32  31  97 N10       29.61R WCI  23
$$
ABBREVIATIONS USED IN REMARKS
   TC - TEMPERATURES IN CELSIUS
  WCI - WIND CHILL INDEX
   HX - HEAT INDEX
  VSB - VISIBILITY
$$




USA.gov is the U.S. government's official web portal to all federal, state and local government web resources and services.